FENGYUN 1C DEB

Satellite information

Favourite Embed

Satellite Type and Status

DEBRISIN ORBIT

Key statistics

Satellite FENGYUN 1C DEB at a glance.

Uptime

9667

Days in orbit

Revolutions

≈ 14.2

Per day

Orbit

SSO

Sun Synchronous Orbit

Inclination

98.7

Latest

Satellite identification and parameters

Extended collection of information and parameters for FENGYUN 1C DEB.

Object identification

Identified? True

Debris? True

Object name: FENGYUN 1C DEB

International designator: 1999-025ALA

Object number (NORAD): 30560

Object ID (CCSDS): 30560

Country: PEOPLES REPUBLIC OF CHINA (PRC)

Current information (Y/N): Y

RCS size: SMALL

Orbital parameters

Period: 101.628 minutes

Inclination: 98.6625 deg

SMA: 7213.895 km

Apoapsis: 919.084 km

Periapsis: 752.436 km

RAAN: 294.8897 deg

Eccentricy: 0.01155048

Argument of periapsis: 347.0915 deg

Mean anomaly: 66.0372 deg

Mean motion: 14.16928821 rev/day

Mean motion (dot): 0.00001137 rev/day2

B* drag term: 0.0005510038 1/REarth

Two-line elements (TLE)

Creation date: Oct. 27, 2025, 2:46 a.m.

Reference frame: TEME

Reference center: EARTH

Epoch: Oct. 26, 2025, 10:47 p.m. UTC

TLE line 0: 0 FENGYUN 1C DEB

TLE line 1: 1 30560U 99025ALA 25299.94984693 .00001137 00000-0 55100-3 0 9994

TLE line 2: 2 30560 98.6625 294.8897 0115505 347.0915 66.0372 14.16928821967069

Live tracking on map

Real-time ground track for satellite FENGYUN 1C DEB.

In-orbit conjunctions

A list of the most updated potential collisions computed for object FENGYUN 1C DEB.

Target Orbit TCA Probability of collision Miss distance Type
METEOR 2-7 DEB LEO 2025-08-01 13:18:41 0.0006746886 43.0 (m) DEBRIS
THORAD AGENA D DEB SSO 2024-11-15 09:35:42 0.0001151892 600.0 (m) DEBRIS

Associated space launch

Chinese polar orbiting meteorological satellite

FENGYUN 1C DEB was lifted into orbit during the mission ‘Long March 4B | Feng Yun 1C’, on board a Long March 4B space rocket.

The launch took place on May 10, 1999, 1:33 a.m. from Launch Complex 7.

For more information about the launch, click the button.

Launch to space Long March 4B | Feng Yun 1C
Long March 4B | Feng Yun 1C

Agency: N/A

Status: Launch Successful

Launch date: May 10, 1999, 1:33 a.m. UTC

Rocket: Long March 4B

Launch pad: Launch Complex 7

Location: Taiyuan Satellite Launch Center, People's Republic of China

...

Latest news about this satellite

There are no fresh news available about this satellite. Check back as we update our databases every day.


Newsletter sign-up

Weekly statistics, charts and insights to help you stay on top of the space industry.